User: anonymous   Login
Location: Via Auriletto, 13, 10098 Rivoli TO, Italia
(45.0746°N, 7.5214°E)
Time: 09:31:02
(UTC+02:00)
Language:

Max Valier Satellite - Orbit

View from above orbital plane
View from above orbital plane
View from above satellite
View from above satellite

Ground track
Ground track

The orbit data is extracted from the following two-line orbital elements,

1 42778U 17036P   19143.16458992  .00000620  00000-0  30163-4 0  9992
2 42778  97.3563 201.4125 0011185 324.3828  35.6661 15.21966163106200
Epoch (UTC): 23 May 2019 03:57:00
Eccentricity: 0.0011185
inclination: 97.3563°
perigee height: 492 km
apogee height: 507 km
right ascension of ascending node: 201.4125°
argument of perigee: 324.3828°
revolutions per day: 15.21966163
mean anomaly at epoch: 35.6661°
orbit number at epoch: 10620

The dashed part of the orbit path shows where the satellite is in the earth's shadow,  

DLR